Regional Weather Roundup
Issued by NWS

Home | Current Version | Previous Version | Text Only | Print | Product List | Glossary Off
Versions: 1 2 3 4 5 6 7 8 9 10 11 12 13 14 15 16 17 18 19 20 21 22 23 24 25 26 27 28

000
ASUS45 KCYS 210210
RWRWY

WYOMING REGIONAL WEATHER ROUNDUP
NATIONAL WEATHER SERVICE CHEYENNE WY
800 PM MDT FRI OCT 20 2017

NOTE:  "FAIR" INDICATES FEW OR NO CLOUDS BELOW 12,000 FEET
WITH NO SIGNIFICANT WEATHER AND/OR OBSTRUCTIONS TO VISIBILITY.

WYZ001-210300-
YELLOWSTONE NATIONAL PARK

CITY           SKY/WX    TMP DP  RH WIND       PRES   REMARKS
LK YELLOWSTONE   N/A     26  24  92 VRB3      29.74R
W YELLOWSTONE  NOT AVBL

$$
WYZ002>013-054>058-071-098>099-210300-
NORTHERN WYOMING

CITY           SKY/WX    TMP DP  RH WIND       PRES   REMARKS
JACKSON        CLOUDY    31  29  92 S9        29.80R FOG     WCI  23
CODY           FAIR      45  19  35 W21       29.58R
GREYBULL       FAIR      54  24  31 NW10      29.55R
WORLAND        MOCLDY    55  17  22 N9        29.53R
SHERIDAN       FAIR      57  38  48 NW18      29.44R
BUFFALO        FAIR      60  25  26 W21G26    29.46R
GILLETTE       FAIR      64  27  24 W18       29.40R
HULETT         FAIR      61  30  31 SW8       29.39R
NEWCASTLE      FAIR      61  28  29 SE5       29.42R

$$
WYZ014>020-022>026-101>103-210300-
CENTRAL WYOMING

CITY           SKY/WX    TMP DP  RH WIND       PRES   REMARKS
BIG PINEY      MOCLDY    32  15  49 CALM      29.82R
PINEDALE       MOCLDY    30  19  64 W7        29.83R WCI  23
DUBOIS         FAIR      30  18  59 NW14G21   29.69R WCI  20
LANDER         FAIR      45  14  28 NW20G31   29.59R
RIVERTON       FAIR      43  14  31 NW23G31   29.62R
CASPER         FAIR      54  28  36 SW18      29.57R
DOUGLAS        FAIR      59  30  33 W17       29.53R

$$
WYZ021-027>030-104>119-210300-
SOUTHERN WYOMING

CITY           SKY/WX    TMP DP  RH WIND       PRES   REMARKS
EVANSTON       FAIR      30  25  81 W16       29.88S WCI  19
FORT BRIDGER   FAIR      32  25  76 W16G24    29.89R WCI  21
ROCK SPRINGS   CLOUDY    35  21  56 W23G30    29.83R WCI  23
DIXON          LGT SNOW  34  32  94 SW5G16    29.87R VSB 3/4 WCI  29
RAWLINS        CLOUDY    38  31  76 W17G26    29.76R WCI  28
SARATOGA       LGT RAIN  36  36 100 W17G31    29.79R WCI  25
LARAMIE        MOCLDY    46  32  58 NW22G29   29.65R
CHEYENNE       FAIR      55  31  39 W5        29.57S
TORRINGTON     FAIR      66  29  24 NW6       29.44R
PINE BLUFFS    FAIR      57  32  38 SE10      29.52F

$$




USA.gov is the U.S. government's official web portal to all federal, state and local government web resources and services.